Location: Innsbruck
(47.2657°N, 11.3914°E)
Time: 15:24:12
(UTC+02:00)

N. Korean satellite - Pass Details

Date: 18 September 2021
Orbit: 450 x 495 km, 97.3° (Epoch: 19 October)

Event Time Altitude Azimuth Distance (km) Brightness Sun altitude
Rises 05:38:42 0° 29° (NNE) 2,501 10.9 -13.7°
Reaches altitude 10° 05:41:19 10° 50° (NE) 1,628 10.4 -13.2°
Maximum altitude 05:43:39 17° 92° (E) 1,270 9.7 -12.9°
Drops below altitude 10° 05:46:00 10° 134° (SE) 1,636 9.6 -12.5°
Sets 05:48:37 0° 156° (SSE) 2,518 10.3 -12.1°
